Time,TemperatureF,DewpointF,PressureIn,WindDirection,WindDirectionDegrees,WindSpeedMPH,WindSpeedGustMPH,Humidity,HourlyPrecipIn,Conditions,Clouds,dailyrainin,SoftwareType,DateUTC
2013-08-17 00:01:00,70.5,0.0,0.00,ENE,62,6.6,10.4,0,0.00,,,0.00,WUHU216PEETBRO,2013-08-17 05:01:00,
2013-08-17 00:06:00,70.5,0.0,0.00,NNE,23,6.2,10.4,0,0.00,,,0.00,WUHU216PEETBRO,2013-08-17 05:06:00,
2013-08-17 00:11:00,70.2,0.0,0.00,NNW,337,5.0,9.1,0,0.00,,,0.00,WUHU216PEETBRO,2013-08-17 05:11:00,
2013-08-17 00:16:00,69.0,0.0,0.00,North,4,5.2,9.9,0,0.00,,,0.00,WUHU216PEETBRO,2013-08-17 05:16:00,
2013-08-17 00:21:00,69.4,0.0,0.00,NE,50,3.2,9.9,0,0.00,,,0.00,WUHU216PEETBRO,2013-08-17 05:21:00,
2013-08-17 00:26:00,69.5,0.0,0.00,NE,49,3.0,10.3,0,0.00,,,0.00,WUHU216PEETBRO,2013-08-17 05:26:00,
2013-08-17 00:31:00,69.6,0.0,0.00,North,359,4.8,10.3,0,0.00,,,0.00,WUHU216PEETBRO,2013-08-17 05:31:00,
2013-08-17 00:36:00,69.6,0.0,0.00,North,359,6.8,9.6,0,0.00,,,0.00,WUHU216PEETBRO,2013-08-17 05:36:00,
2013-08-17 00:41:00,70.2,0.0,0.00,North,2,5.2,9.4,0,0.00,,,0.00,WUHU216PEETBRO,2013-08-17 05:41:00,
2013-08-17 00:46:00,69.7,0.0,0.00,North,4,4.9,10.1,0,0.00,,,0.00,WUHU216PEETBRO,2013-08-17 05:46:00,
2013-08-17 00:51:00,69.9,0.0,0.00,North,4,6.4,10.1,0,0.00,,,0.00,WUHU216PEETBRO,2013-08-17 05:51:00,
2013-08-17 00:56:00,69.3,0.0,0.00,NNE,18,2.9,8.6,0,0.00,,,0.00,WUHU216PEETBRO,2013-08-17 05:56:00,
2013-08-17 01:01:00,69.0,0.0,0.00,NNE,32,3.5,8.6,0,0.00,,,0.00,WUHU216PEETBRO,2013-08-17 06:01:00,
2013-08-17 01:06:00,69.0,0.0,0.00,NNE,15,4.2,8.1,0,0.00,,,0.00,WUHU216PEETBRO,2013-08-17 06:06:00,
2013-08-17 01:11:00,69.0,0.0,0.00,ENE,64,2.9,8.1,0,0.00,,,0.00,WUHU216PEETBRO,2013-08-17 06:11:00,
2013-08-17 01:16:00,69.0,0.0,0.00,North,0,4.7,9.0,0,0.00,,,0.00,WUHU216PEETBRO,2013-08-17 06:16:00,
2013-08-17 01:21:00,69.0,0.0,0.00,North,4,5.3,9.0,0,0.00,,,0.00,WUHU216PEETBRO,2013-08-17 06:21:00,
2013-08-17 01:26:00,68.7,0.0,0.00,NE,36,4.0,8.5,0,0.00,,,0.00,WUHU216PEETBRO,2013-08-17 06:26:00,
2013-08-17 01:31:00,68.7,0.0,0.00,North,9,4.5,8.5,0,0.00,,,0.00,WUHU216PEETBRO,2013-08-17 06:31:00,
2013-08-17 01:36:00,68.2,0.0,0.00,NNE,21,2.6,7.8,0,0.00,,,0.00,WUHU216PEETBRO,2013-08-17 06:36:00,
2013-08-17 01:41:00,68.2,0.0,0.00,North,0,4.0,7.8,0,0.00,,,0.00,WUHU216PEETBRO,2013-08-17 06:41:00,
2013-08-17 01:46:00,68.2,0.0,0.00,NNW,341,2.5,7.8,0,0.00,,,0.00,WUHU216PEETBRO,2013-08-17 06:46:00,
2013-08-17 01:51:00,68.2,0.0,0.00,North,0,4.6,7.1,0,0.00,,,0.00,WUHU216PEETBRO,2013-08-17 06:51:00,
2013-08-17 01:56:00,67.9,0.0,0.00,NE,40,3.2,8.2,0,0.00,,,0.00,WUHU216PEETBRO,2013-08-17 06:56:00,
2013-08-17 02:01:00,67.9,0.0,0.00,North,9,2.2,8.2,0,0.00,,,0.00,WUHU216PEETBRO,2013-08-17 07:01:00,
2013-08-17 02:06:00,67.3,0.0,0.00,North,350,2.7,8.5,0,0.00,,,0.00,WUHU216PEETBRO,2013-08-17 07:06:00,
2013-08-17 02:11:00,67.2,0.0,0.00,NNW,345,2.4,8.5,0,0.00,,,0.00,WUHU216PEETBRO,2013-08-17 07:11:00,
2013-08-17 02:16:00,67.3,0.0,0.00,North,11,3.0,7.2,0,0.00,,,0.00,WUHU216PEETBRO,2013-08-17 07:16:00,
2013-08-17 02:21:00,67.3,0.0,0.00,North,359,3.9,7.2,0,0.00,,,0.00,WUHU216PEETBRO,2013-08-17 07:21:00,
2013-08-17 02:26:00,67.3,0.0,0.00,North,4,5.3,6.6,0,0.00,,,0.00,WUHU216PEETBRO,2013-08-17 07:26:00,
2013-08-17 02:31:00,67.0,0.0,0.00,North,358,2.2,6.6,0,0.00,,,0.00,WUHU216PEETBRO,2013-08-17 07:31:00,
2013-08-17 02:36:00,67.3,0.0,0.00,North,352,5.4,7.2,0,0.00,,,0.00,WUHU216PEETBRO,2013-08-17 07:36:00,
2013-08-17 02:41:00,67.0,0.0,0.00,North,359,4.7,7.2,0,0.00,,,0.00,WUHU216PEETBRO,2013-08-17 07:41:00,
2013-08-17 02:46:00,67.3,0.0,0.00,NNW,341,3.0,6.6,0,0.00,,,0.00,WUHU216PEETBRO,2013-08-17 07:46:00,
2013-08-17 02:51:00,67.3,0.0,0.00,North,359,3.4,8.8,0,0.00,,,0.00,WUHU216PEETBRO,2013-08-17 07:51:00,
2013-08-17 02:56:00,66.8,0.0,0.00,North,7,3.4,8.8,0,0.00,,,0.00,WUHU216PEETBRO,2013-08-17 07:56:00,
2013-08-17 03:01:00,66.8,0.0,0.00,North,359,4.5,7.5,0,0.00,,,0.00,WUHU216PEETBRO,2013-08-17 08:01:00,
2013-08-17 03:06:00,67.0,0.0,0.00,North,9,2.1,6.6,0,0.00,,,0.00,WUHU216PEETBRO,2013-08-17 08:06:00,
2013-08-17 03:11:00,66.8,0.0,0.00,NNE,15,1.7,6.6,0,0.00,,,0.00,WUHU216PEETBRO,2013-08-17 08:11:00,
2013-08-17 03:16:00,66.4,0.0,0.00,North,359,4.3,7.4,0,0.00,,,0.00,WUHU216PEETBRO,2013-08-17 08:16:00,
2013-08-17 03:21:00,66.4,0.0,0.00,East,97,4.3,8.2,0,0.00,,,0.00,WUHU216PEETBRO,2013-08-17 08:21:00,
2013-08-17 03:26:00,66.7,0.0,0.00,North,8,3.2,8.2,0,0.00,,,0.00,WUHU216PEETBRO,2013-08-17 08:26:00,
2013-08-17 03:31:00,66.5,0.0,0.00,North,358,2.5,6.9,0,0.00,,,0.00,WUHU216PEETBRO,2013-08-17 08:31:00,
2013-08-17 03:36:00,66.4,0.0,0.00,NNE,15,2.8,6.6,0,0.00,,,0.00,WUHU216PEETBRO,2013-08-17 08:36:00,
2013-08-17 03:41:00,66.4,0.0,0.00,North,359,4.7,6.6,0,0.00,,,0.00,WUHU216PEETBRO,2013-08-17 08:41:00,
2013-08-17 03:46:00,66.4,0.0,0.00,North,9,4.2,8.9,0,0.00,,,0.00,WUHU216PEETBRO,2013-08-17 08:46:00,
2013-08-17 03:51:00,66.4,0.0,0.00,NNE,16,2.4,8.9,0,0.00,,,0.00,WUHU216PEETBRO,2013-08-17 08:51:00,
2013-08-17 03:56:00,66.1,0.0,0.00,NNE,18,2.5,6.2,0,0.00,,,0.00,WUHU216PEETBRO,2013-08-17 08:56:00,
2013-08-17 04:01:00,66.1,0.0,0.00,North,5,1.7,6.8,0,0.00,,,0.00,WUHU216PEETBRO,2013-08-17 09:01:00,
2013-08-17 04:06:00,66.4,0.0,0.00,NNW,348,1.4,6.8,0,0.00,,,0.00,WUHU216PEETBRO,2013-08-17 09:06:00,
2013-08-17 04:11:00,66.1,0.0,0.00,NNE,29,2.8,6.3,0,0.00,,,0.00,WUHU216PEETBRO,2013-08-17 09:11:00,
2013-08-17 04:16:00,66.4,0.0,0.00,North,0,4.2,6.5,0,0.00,,,0.00,WUHU216PEETBRO,2013-08-17 09:16:00,
2013-08-17 04:21:00,66.4,0.0,0.00,NW,310,2.3,6.5,0,0.00,,,0.00,WUHU216PEETBRO,2013-08-17 09:21:00,
2013-08-17 04:26:00,66.1,0.0,0.00,North,8,3.4,6.6,0,0.00,,,0.00,WUHU216PEETBRO,2013-08-17 09:26:00,
2013-08-17 04:31:00,65.6,0.0,0.00,North,9,4.7,6.6,0,0.00,,,0.00,WUHU216PEETBRO,2013-08-17 09:31:00,
2013-08-17 04:36:00,65.6,0.0,0.00,NE,55,3.0,6.2,0,0.00,,,0.00,WUHU216PEETBRO,2013-08-17 09:36:00,
2013-08-17 04:41:00,65.9,0.0,0.00,NNE,21,3.7,8.1,0,0.00,,,0.00,WUHU216PEETBRO,2013-08-17 09:41:00,
2013-08-17 04:46:00,66.1,0.0,0.00,North,354,3.5,8.1,0,0.00,,,0.00,WUHU216PEETBRO,2013-08-17 09:46:00,
2013-08-17 04:51:00,65.6,0.0,0.00,NNE,15,1.2,5.9,0,0.00,,,0.00,WUHU216PEETBRO,2013-08-17 09:51:00,
2013-08-17 04:56:00,65.9,0.0,0.00,North,359,4.2,5.2,0,0.00,,,0.00,WUHU216PEETBRO,2013-08-17 09:56:00,
2013-08-17 05:01:00,65.9,0.0,0.00,North,350,4.7,7.2,0,0.00,,,0.00,WUHU216PEETBRO,2013-08-17 10:01:00,
2013-08-17 05:06:00,65.3,0.0,0.00,NNW,348,2.0,7.2,0,0.00,,,0.00,WUHU216PEETBRO,2013-08-17 10:06:00,
2013-08-17 05:11:00,65.6,0.0,0.00,NNW,344,1.8,6.9,0,0.00,,,0.00,WUHU216PEETBRO,2013-08-17 10:11:00,
2013-08-17 05:16:00,65.6,0.0,0.00,NNW,340,3.1,7.6,0,0.00,,,0.00,WUHU216PEETBRO,2013-08-17 10:16:00,
2013-08-17 05:21:00,65.6,0.0,0.00,North,357,3.7,7.6,0,0.00,,,0.00,WUHU216PEETBRO,2013-08-17 10:21:00,
2013-08-17 05:26:00,65.6,0.0,0.00,North,359,0.5,7.5,0,0.00,,,0.00,WUHU216PEETBRO,2013-08-17 10:26:00,
2013-08-17 05:31:00,65.6,0.0,0.00,North,9,3.3,7.5,0,0.00,,,0.00,WUHU216PEETBRO,2013-08-17 10:31:00,
2013-08-17 05:36:00,65.6,0.0,0.00,North,2,3.4,6.4,0,0.00,,,0.00,WUHU216PEETBRO,2013-08-17 10:36:00,
2013-08-17 05:41:00,65.7,0.0,0.00,NNE,19,2.7,5.8,0,0.00,,,0.00,WUHU216PEETBRO,2013-08-17 10:41:00,
2013-08-17 05:46:00,65.6,0.0,0.00,NW,320,4.2,5.8,0,0.00,,,0.00,WUHU216PEETBRO,2013-08-17 10:46:00,
2013-08-17 05:51:00,65.4,0.0,0.00,North,359,2.8,7.8,0,0.00,,,0.00,WUHU216PEETBRO,2013-08-17 10:51:00,
2013-08-17 05:56:00,65.6,0.0,0.00,North,7,2.7,7.8,0,0.00,,,0.00,WUHU216PEETBRO,2013-08-17 10:56:00,
2013-08-17 06:01:00,64.7,0.0,0.00,NNW,338,2.6,5.3,0,0.00,,,0.00,WUHU216PEETBRO,2013-08-17 11:01:00,
2013-08-17 06:06:00,64.4,0.0,0.00,North,5,2.0,5.0,0,0.00,,,0.00,WUHU216PEETBRO,2013-08-17 11:06:00,
2013-08-17 06:11:00,64.7,0.0,0.00,NNW,347,3.1,5.4,0,0.00,,,0.00,WUHU216PEETBRO,2013-08-17 11:11:00,
2013-08-17 06:16:00,64.7,0.0,0.00,North,355,2.1,5.9,0,0.00,,,0.00,WUHU216PEETBRO,2013-08-17 11:16:00,
2013-08-17 06:21:00,65.0,0.0,0.00,North,0,4.9,6.4,0,0.00,,,0.00,WUHU216PEETBRO,2013-08-17 11:21:00,
2013-08-17 06:26:00,64.4,0.0,0.00,NNW,345,2.8,6.4,0,0.00,,,0.00,WUHU216PEETBRO,2013-08-17 11:26:00,
2013-08-17 06:31:00,64.7,0.0,0.00,NNE,25,3.9,8.8,0,0.00,,,0.00,WUHU216PEETBRO,2013-08-17 11:31:00,
2013-08-17 06:36:00,64.7,0.0,0.00,NNW,345,8.6,8.8,0,0.00,,,0.00,WUHU216PEETBRO,2013-08-17 11:36:00,
2013-08-17 06:41:00,64.7,0.0,0.00,North,9,3.7,10.2,0,0.00,,,0.00,WUHU216PEETBRO,2013-08-17 11:41:00,
2013-08-17 06:46:00,64.7,0.0,0.00,North,11,2.7,10.2,0,0.00,,,0.00,WUHU216PEETBRO,2013-08-17 11:46:00,
2013-08-17 06:51:00,65.0,0.0,0.00,North,1,3.3,7.8,0,0.00,,,0.00,WUHU216PEETBRO,2013-08-17 11:51:00,
2013-08-17 06:56:00,65.7,0.0,0.00,North,5,2.5,8.1,0,0.00,,,0.00,WUHU216PEETBRO,2013-08-17 11:56:00,
2013-08-17 07:01:00,67.0,0.0,0.00,North,2,4.2,8.1,0,0.00,,,0.00,WUHU216PEETBRO,2013-08-17 12:01:00,
2013-08-17 07:06:00,67.3,0.0,0.00,North,7,5.6,7.8,0,0.00,,,0.00,WUHU216PEETBRO,2013-08-17 12:06:00,
2013-08-17 07:11:00,69.0,0.0,0.00,NNE,23,5.6,7.8,0,0.00,,,0.00,WUHU216PEETBRO,2013-08-17 12:11:00,
2013-08-17 07:16:00,69.5,0.0,0.00,North,358,2.2,7.1,0,0.00,,,0.00,WUHU216PEETBRO,2013-08-17 12:16:00,
2013-08-17 07:21:00,69.3,0.0,0.00,North,357,4.8,8.4,0,0.00,,,0.00,WUHU216PEETBRO,2013-08-17 12:21:00,
2013-08-17 07:26:00,70.5,0.0,0.00,NNE,32,4.0,8.4,0,0.00,,,0.00,WUHU216PEETBRO,2013-08-17 12:26:00,
2013-08-17 07:31:00,70.8,0.0,0.00,North,351,8.3,8.9,0,0.00,,,0.00,WUHU216PEETBRO,2013-08-17 12:31:00,
2013-08-17 07:36:00,71.4,0.0,0.00,North,358,4.4,8.9,0,0.00,,,0.00,WUHU216PEETBRO,2013-08-17 12:36:00,
2013-08-17 07:41:00,72.6,0.0,0.00,NNE,22,5.2,8.7,0,0.00,,,0.00,WUHU216PEETBRO,2013-08-17 12:41:00,
2013-08-17 07:46:00,73.3,0.0,0.00,North,1,2.2,8.8,0,0.00,,,0.00,WUHU216PEETBRO,2013-08-17 12:46:00,
2013-08-17 07:51:00,74.6,0.0,0.00,SSE,167,0.7,8.8,0,0.00,,,0.00,WUHU216PEETBRO,2013-08-17 12:51:00,
2013-08-17 07:56:00,73.7,0.0,0.00,North,8,2.7,6.6,0,0.00,,,0.00,WUHU216PEETBRO,2013-08-17 12:56:00,
2013-08-17 08:01:00,74.0,0.0,0.00,North,1,3.4,8.3,0,0.00,,,0.00,WUHU216PEETBRO,2013-08-17 13:01:00,
2013-08-17 08:05:00,74.9,0.0,0.00,NNE,31,2.4,8.3,0,0.00,,,0.00,WUHU216PEETBRO,2013-08-17 13:05:00,
2013-08-17 08:10:00,75.3,0.0,0.00,NE,43,2.8,8.4,0,0.00,,,0.00,WUHU216PEETBRO,2013-08-17 13:10:00,
2013-08-17 08:15:00,78.1,0.0,0.00,NNE,16,3.4,8.4,0,0.00,,,0.00,WUHU216PEETBRO,2013-08-17 13:15:00,
2013-08-17 08:20:00,75.9,0.0,0.00,North,7,5.6,7.1,0,0.00,,,0.00,WUHU216PEETBRO,2013-08-17 13:20:00,
2013-08-17 08:25:00,77.4,0.0,0.00,North,4,2.6,7.3,0,0.00,,,0.00,WUHU216PEETBRO,2013-08-17 13:25:00,
2013-08-17 08:30:00,79.9,0.0,0.00,NE,53,3.1,7.3,0,0.00,,,0.00,WUHU216PEETBRO,2013-08-17 13:30:00,
2013-08-17 08:35:00,81.1,0.0,0.00,North,7,0.6,5.7,0,0.00,,,0.00,WUHU216PEETBRO,2013-08-17 13:35:00,
2013-08-17 08:40:00,80.6,0.0,0.00,North,355,3.0,6.1,0,0.00,,,0.00,WUHU216PEETBRO,2013-08-17 13:40:00,
2013-08-17 08:45:00,80.2,0.0,0.00,North,354,4.5,6.1,0,0.00,,,0.00,WUHU216PEETBRO,2013-08-17 13:45:00,
2013-08-17 08:50:00,79.9,0.0,0.00,NNW,345,3.5,6.5,0,0.00,,,0.00,WUHU216PEETBRO,2013-08-17 13:50:00,
2013-08-17 08:55:00,79.7,0.0,0.00,SE,146,5.0,7.5,0,0.00,,,0.00,WUHU216PEETBRO,2013-08-17 13:55:00,
2013-08-17 09:00:00,78.9,0.0,0.00,East,101,5.0,7.7,0,0.00,,,0.00,WUHU216PEETBRO,2013-08-17 14:00:00,
2013-08-17 09:05:00,80.5,0.0,0.00,NNE,22,2.3,7.7,0,0.00,,,0.00,WUHU216PEETBRO,2013-08-17 14:05:00,
2013-08-17 09:10:00,83.2,0.0,0.00,North,9,5.0,6.2,0,0.00,,,0.00,WUHU216PEETBRO,2013-08-17 14:10:00,
2013-08-17 09:15:00,86.6,0.0,0.00,North,2,2.3,6.6,0,0.00,,,0.00,WUHU216PEETBRO,2013-08-17 14:15:00,
2013-08-17 09:20:00,82.4,0.0,0.00,SE,143,4.0,7.0,0,0.00,,,0.00,WUHU216PEETBRO,2013-08-17 14:20:00,
2013-08-17 09:25:00,85.0,0.0,0.00,South,170,2.4,7.0,0,0.00,,,0.00,WUHU216PEETBRO,2013-08-17 14:25:00,
2013-08-17 09:30:00,85.0,0.0,0.00,NE,47,2.1,5.7,0,0.00,,,0.00,WUHU216PEETBRO,2013-08-17 14:30:00,
2013-08-17 09:35:00,86.9,0.0,0.00,East,84,3.4,6.5,0,0.00,,,0.00,WUHU216PEETBRO,2013-08-17 14:35:00,
2013-08-17 09:40:00,87.7,0.0,0.00,NNW,328,3.6,6.5,0,0.00,,,0.00,WUHU216PEETBRO,2013-08-17 14:40:00,
2013-08-17 09:45:00,86.9,0.0,0.00,NNW,345,2.8,7.0,0,0.00,,,0.00,WUHU216PEETBRO,2013-08-17 14:45:00,
2013-08-17 09:50:00,87.7,0.0,0.00,North,1,5.7,7.0,0,0.00,,,0.00,WUHU216PEETBRO,2013-08-17 14:50:00,
2013-08-17 09:55:00,86.6,0.0,0.00,NNE,23,3.4,6.6,0,0.00,,,0.00,WUHU216PEETBRO,2013-08-17 14:55:00,
2013-08-17 10:00:00,84.5,0.0,0.00,East,100,5.2,6.0,0,0.00,,,0.00,WUHU216PEETBRO,2013-08-17 15:00:00,
2013-08-17 10:05:00,86.6,0.0,0.00,SW,228,1.1,6.2,0,0.00,,,0.00,WUHU216PEETBRO,2013-08-17 15:05:00,
2013-08-17 10:10:00,85.8,0.0,0.00,ENE,64,3.0,7.2,0,0.00,,,0.00,WUHU216PEETBRO,2013-08-17 15:10:00,
2013-08-17 10:15:00,91.0,0.0,0.00,North,8,4.4,7.2,0,0.00,,,0.00,WUHU216PEETBRO,2013-08-17 15:15:00,
2013-08-17 10:20:00,91.1,0.0,0.00,NE,42,5.9,6.6,0,0.00,,,0.00,WUHU216PEETBRO,2013-08-17 15:20:00,
2013-08-17 10:25:00,88.1,0.0,0.00,North,4,2.9,7.2,0,0.00,,,0.00,WUHU216PEETBRO,2013-08-17 15:25:00,
2013-08-17 10:30:00,92.6,0.0,0.00,ENE,63,2.5,7.2,0,0.00,,,0.00,WUHU216PEETBRO,2013-08-17 15:30:00,
2013-08-17 10:35:00,90.0,0.0,0.00,NNW,345,6.1,9.6,0,0.00,,,0.00,WUHU216PEETBRO,2013-08-17 15:35:00,
2013-08-17 10:40:00,90.0,0.0,0.00,NNE,23,6.0,9.6,0,0.00,,,0.00,WUHU216PEETBRO,2013-08-17 15:40:00,
2013-08-17 10:45:00,89.7,0.0,0.00,NNW,341,8.6,8.9,0,0.00,,,0.00,WUHU216PEETBRO,2013-08-17 15:45:00,
2013-08-17 10:50:00,91.0,0.0,0.00,NNW,341,2.1,8.9,0,0.00,,,0.00,WUHU216PEETBRO,2013-08-17 15:50:00,
2013-08-17 10:55:00,90.4,0.0,0.00,NNE,25,4.8,11.9,0,0.00,,,0.00,WUHU216PEETBRO,2013-08-17 15:55:00,
2013-08-17 11:00:00,90.0,0.0,0.00,ESE,105,9.3,11.9,0,0.00,,,0.00,WUHU216PEETBRO,2013-08-17 16:00:00,
2013-08-17 11:05:00,91.1,0.0,0.00,North,11,7.6,9.6,0,0.00,,,0.00,WUHU216PEETBRO,2013-08-17 16:05:00,
2013-08-17 11:10:00,93.4,0.0,0.00,North,357,4.7,9.6,0,0.00,,,0.00,WUHU216PEETBRO,2013-08-17 16:10:00,
2013-08-17 11:15:00,90.0,0.0,0.00,ENE,73,4.9,9.6,0,0.00,,,0.00,WUHU216PEETBRO,2013-08-17 16:15:00,
2013-08-17 11:20:00,90.9,0.0,0.00,East,101,3.3,9.4,0,0.00,,,0.00,WUHU216PEETBRO,2013-08-17 16:20:00,
2013-08-17 11:25:00,92.1,0.0,0.00,NW,323,4.8,12.2,0,0.00,,,0.00,WUHU216PEETBRO,2013-08-17 16:25:00,
2013-08-17 11:30:00,90.9,0.0,0.00,North,2,5.8,12.2,0,0.00,,,0.00,WUHU216PEETBRO,2013-08-17 16:30:00,
2013-08-17 11:35:00,92.1,0.0,0.00,NNW,338,7.4,10.6,0,0.00,,,0.00,WUHU216PEETBRO,2013-08-17 16:35:00,
2013-08-17 11:40:00,91.2,0.0,0.00,NNE,12,3.7,10.4,0,0.00,,,0.00,WUHU216PEETBRO,2013-08-17 16:40:00,
2013-08-17 11:45:00,92.1,0.0,0.00,North,11,6.5,9.7,0,0.00,,,0.00,WUHU216PEETBRO,2013-08-17 16:45:00,
2013-08-17 11:50:00,92.1,0.0,0.00,NNE,14,8.1,11.5,0,0.00,,,0.00,WUHU216PEETBRO,2013-08-17 16:50:00,
2013-08-17 11:55:00,94.7,0.0,0.00,ENE,69,2.2,11.5,0,0.00,,,0.00,WUHU216PEETBRO,2013-08-17 16:55:00,
2013-08-17 12:00:00,90.3,0.0,0.00,ESE,110,8.8,11.5,0,0.00,,,0.00,WUHU216PEETBRO,2013-08-17 17:00:00,
2013-08-17 12:05:00,93.9,0.0,0.00,North,358,5.9,9.8,0,0.00,,,0.00,WUHU216PEETBRO,2013-08-17 17:05:00,
2013-08-17 12:10:00,90.9,0.0,0.00,North,4,4.9,12.4,0,0.00,,,0.00,WUHU216PEETBRO,2013-08-17 17:10:00,
2013-08-17 12:15:00,93.4,0.0,0.00,East,86,3.7,12.4,0,0.00,,,0.00,WUHU216PEETBRO,2013-08-17 17:15:00,
2013-08-17 12:20:00,88.1,0.0,0.00,ESE,112,4.8,8.8,0,0.00,,,0.00,WUHU216PEETBRO,2013-08-17 17:20:00,
2013-08-17 12:25:00,92.1,0.0,0.00,NNE,16,3.2,10.2,0,0.00,,,0.00,WUHU216PEETBRO,2013-08-17 17:25:00,
2013-08-17 12:30:00,94.7,0.0,0.00,ESE,110,1.9,10.2,0,0.00,,,0.00,WUHU216PEETBRO,2013-08-17 17:30:00,
2013-08-17 12:35:00,97.3,0.0,0.00,North,355,3.4,9.3,0,0.00,,,0.00,WUHU216PEETBRO,2013-08-17 17:35:00,
2013-08-17 12:40:00,90.0,0.0,0.00,ENE,60,5.4,14.2,0,0.00,,,0.00,WUHU216PEETBRO,2013-08-17 17:40:00,
2013-08-17 12:45:00,87.7,0.0,0.00,NNE,22,4.5,14.2,0,0.00,,,0.00,WUHU216PEETBRO,2013-08-17 17:45:00,
2013-08-17 12:50:00,94.7,0.0,0.00,NNE,18,3.5,14.2,0,0.00,,,0.00,WUHU216PEETBRO,2013-08-17 17:50:00,
2013-08-17 12:55:00,91.2,0.0,0.00,NE,52,5.9,17.4,0,0.00,,,0.00,WUHU216PEETBRO,2013-08-17 17:55:00,
2013-08-17 13:00:00,90.0,0.0,0.00,East,84,5.7,17.4,0,0.00,,,0.00,WUHU216PEETBRO,2013-08-17 18:00:00,
2013-08-17 13:05:00,92.1,0.0,0.00,North,0,5.4,14.8,0,0.00,,,0.00,WUHU216PEETBRO,2013-08-17 18:05:00,
2013-08-17 13:10:00,93.4,0.0,0.00,North,358,8.7,12.4,0,0.00,,,0.00,WUHU216PEETBRO,2013-08-17 18:10:00,
2013-08-17 13:15:00,87.7,0.0,0.00,NNE,18,5.0,13.3,0,0.00,,,0.00,WUHU216PEETBRO,2013-08-17 18:15:00,
2013-08-17 13:20:00,88.8,0.0,0.00,ESE,118,7.0,14.7,0,0.00,,,0.00,WUHU216PEETBRO,2013-08-17 18:20:00,
2013-08-17 13:25:00,89.9,0.0,0.00,NE,52,5.5,14.7,0,0.00,,,0.00,WUHU216PEETBRO,2013-08-17 18:25:00,
2013-08-17 13:30:00,94.2,0.0,0.00,NNE,19,7.5,12.7,0,0.00,,,0.00,WUHU216PEETBRO,2013-08-17 18:30:00,
2013-08-17 13:35:00,90.4,0.0,0.00,NNE,14,2.3,16.6,0,0.00,,,0.00,WUHU216PEETBRO,2013-08-17 18:35:00,
2013-08-17 13:40:00,94.7,0.0,0.00,NNE,23,3.2,16.6,0,0.00,,,0.00,WUHU216PEETBRO,2013-08-17 18:40:00,
2013-08-17 13:45:00,90.0,0.0,0.00,ENE,70,4.8,13.7,0,0.00,,,0.00,WUHU216PEETBRO,2013-08-17 18:45:00,
2013-08-17 13:50:00,87.7,0.0,0.00,North,11,4.5,13.7,0,0.00,,,0.00,WUHU216PEETBRO,2013-08-17 18:50:00,
2013-08-17 13:55:00,86.6,0.0,0.00,East,97,6.0,11.2,0,0.00,,,0.00,WUHU216PEETBRO,2013-08-17 18:55:00,
2013-08-17 14:00:00,90.0,0.0,0.00,North,0,0.7,10.1,0,0.00,,,0.00,WUHU216PEETBRO,2013-08-17 19:00:00,
2013-08-17 14:05:00,89.7,0.0,0.00,SE,125,3.0,9.4,0,0.00,,,0.00,WUHU216PEETBRO,2013-08-17 19:05:00,
2013-08-17 14:10:00,93.0,0.0,0.00,NNE,14,5.1,9.4,0,0.00,,,0.00,WUHU216PEETBRO,2013-08-17 19:10:00,
2013-08-17 14:15:00,91.8,0.0,0.00,ENE,76,4.5,9.2,0,0.00,,,0.00,WUHU216PEETBRO,2013-08-17 19:15:00,
2013-08-17 14:20:00,91.8,0.0,0.00,NW,324,2.2,10.3,0,0.00,,,0.00,WUHU216PEETBRO,2013-08-17 19:20:00,
2013-08-17 14:25:00,87.7,0.0,0.00,NE,45,9.7,12.6,0,0.00,,,0.00,WUHU216PEETBRO,2013-08-17 19:25:00,
2013-08-17 14:30:00,96.4,0.0,0.00,North,359,4.2,13.4,0,0.00,,,0.00,WUHU216PEETBRO,2013-08-17 19:30:00,
2013-08-17 14:35:00,99.8,0.0,0.00,NNE,28,3.4,13.4,0,0.00,,,0.00,WUHU216PEETBRO,2013-08-17 19:35:00,
2013-08-17 14:40:00,90.8,0.0,0.00,SE,131,6.3,9.3,0,0.00,,,0.00,WUHU216PEETBRO,2013-08-17 19:40:00,
2013-08-17 14:45:00,97.9,0.0,0.00,North,357,0.0,9.3,0,0.00,,,0.00,WUHU216PEETBRO,2013-08-17 19:45:00,
2013-08-17 14:50:00,96.0,0.0,0.00,North,7,1.9,9.0,0,0.00,,,0.00,WUHU216PEETBRO,2013-08-17 19:50:00,
2013-08-17 14:55:00,98.0,0.0,0.00,North,11,6.1,9.1,0,0.00,,,0.00,WUHU216PEETBRO,2013-08-17 19:55:00,
2013-08-17 15:00:00,97.8,0.0,0.00,North,355,4.9,9.1,0,0.00,,,0.00,WUHU216PEETBRO,2013-08-17 20:00:00,
2013-08-17 15:05:00,101.4,0.0,0.00,WNW,296,1.6,8.5,0,0.00,,,0.00,WUHU216PEETBRO,2013-08-17 20:05:00,
2013-08-17 15:10:00,96.0,0.0,0.00,SE,139,4.2,11.5,0,0.00,,,0.00,WUHU216PEETBRO,2013-08-17 20:10:00,
2013-08-17 15:15:00,98.4,0.0,0.00,NNE,25,4.2,11.5,0,0.00,,,0.00,WUHU216PEETBRO,2013-08-17 20:15:00,
2013-08-17 15:20:00,98.3,0.0,0.00,North,359,3.8,7.9,0,0.00,,,0.00,WUHU216PEETBRO,2013-08-17 20:20:00,
2013-08-17 15:25:00,97.3,0.0,0.00,ENE,73,2.4,9.8,0,0.00,,,0.00,WUHU216PEETBRO,2013-08-17 20:25:00,
2013-08-17 15:30:00,99.8,0.0,0.00,NNE,29,1.6,9.8,0,0.00,,,0.00,WUHU216PEETBRO,2013-08-17 20:30:00,
2013-08-17 15:35:00,97.3,0.0,0.00,North,351,0.5,8.5,0,0.00,,,0.00,WUHU216PEETBRO,2013-08-17 20:35:00,
2013-08-17 15:40:00,96.0,0.0,0.00,East,88,2.9,8.0,0,0.00,,,0.00,WUHU216PEETBRO,2013-08-17 20:40:00,
2013-08-17 15:45:00,91.2,0.0,0.00,NNE,33,2.1,8.5,0,0.00,,,0.00,WUHU216PEETBRO,2013-08-17 20:45:00,
2013-08-17 15:50:00,88.8,0.0,0.00,East,90,4.0,8.6,0,0.00,,,0.00,WUHU216PEETBRO,2013-08-17 20:50:00,
2013-08-17 15:55:00,88.8,0.0,0.00,NE,39,1.8,8.6,0,0.00,,,0.00,WUHU216PEETBRO,2013-08-17 20:55:00,
2013-08-17 16:00:00,89.2,0.0,0.00,North,7,4.0,9.5,0,0.00,,,0.00,WUHU216PEETBRO,2013-08-17 21:00:00,
2013-08-17 16:05:00,94.7,0.0,0.00,ESE,114,2.1,9.5,0,0.00,,,0.00,WUHU216PEETBRO,2013-08-17 21:05:00,
2013-08-17 16:10:00,95.1,0.0,0.00,SE,136,1.3,9.1,0,0.00,,,0.00,WUHU216PEETBRO,2013-08-17 21:10:00,
2013-08-17 16:15:00,91.2,0.0,0.00,NNE,23,3.9,4.6,0,0.00,,,0.00,WUHU216PEETBRO,2013-08-17 21:15:00,
2013-08-17 16:20:00,88.8,0.0,0.00,North,7,0.0,7.6,0,0.00,,,0.00,WUHU216PEETBRO,2013-08-17 21:20:00,
2013-08-17 16:25:00,92.1,0.0,0.00,SE,129,3.0,7.6,0,0.00,,,0.00,WUHU216PEETBRO,2013-08-17 21:25:00,
2013-08-17 16:30:00,98.3,0.0,0.00,NNW,343,3.7,7.1,0,0.00,,,0.00,WUHU216PEETBRO,2013-08-17 21:30:00,
2013-08-17 16:35:00,91.5,0.0,0.00,ESE,111,6.0,10.2,0,0.00,,,0.00,WUHU216PEETBRO,2013-08-17 21:35:00,
2013-08-17 16:40:00,89.7,0.0,0.00,North,352,5.7,10.2,0,0.00,,,0.00,WUHU216PEETBRO,2013-08-17 21:40:00,
2013-08-17 16:45:00,91.1,0.0,0.00,East,87,5.3,10.3,0,0.00,,,0.00,WUHU216PEETBRO,2013-08-17 21:45:00,
2013-08-17 16:50:00,91.2,0.0,0.00,NNE,21,5.6,10.3,0,0.00,,,0.00,WUHU216PEETBRO,2013-08-17 21:50:00,
2013-08-17 16:55:00,89.9,0.0,0.00,ENE,63,3.3,9.6,0,0.00,,,0.00,WUHU216PEETBRO,2013-08-17 21:55:00,
2013-08-17 17:00:00,91.2,0.0,0.00,NNE,29,5.2,12.0,0,0.00,,,0.00,WUHU216PEETBRO,2013-08-17 22:00:00,
2013-08-17 17:05:00,91.8,0.0,0.00,East,97,5.9,12.0,0,0.00,,,0.00,WUHU216PEETBRO,2013-08-17 22:05:00,
2013-08-17 17:10:00,93.4,0.0,0.00,ENE,70,3.3,11.7,0,0.00,,,0.00,WUHU216PEETBRO,2013-08-17 22:10:00,
2013-08-17 17:15:00,87.7,0.0,0.00,East,98,8.2,13.7,0,0.00,,,0.00,WUHU216PEETBRO,2013-08-17 22:15:00,
2013-08-17 17:20:00,88.1,0.0,0.00,East,98,9.6,15.0,0,0.00,,,0.00,WUHU216PEETBRO,2013-08-17 22:20:00,
2013-08-17 17:25:00,87.7,0.0,0.00,East,80,7.5,15.0,0,0.00,,,0.00,WUHU216PEETBRO,2013-08-17 22:25:00,
2013-08-17 17:30:00,87.7,0.0,0.00,NNE,33,1.5,12.7,0,0.00,,,0.00,WUHU216PEETBRO,2013-08-17 22:30:00,
2013-08-17 17:35:00,88.8,0.0,0.00,NNE,29,4.5,12.7,0,0.00,,,0.00,WUHU216PEETBRO,2013-08-17 22:35:00,
2013-08-17 17:40:00,86.9,0.0,0.00,NE,38,3.5,10.2,0,0.00,,,0.00,WUHU216PEETBRO,2013-08-17 22:40:00,
2013-08-17 17:45:00,86.6,0.0,0.00,SE,143,5.3,11.2,0,0.00,,,0.00,WUHU216PEETBRO,2013-08-17 22:45:00,
2013-08-17 17:50:00,85.4,0.0,0.00,ESE,121,2.5,11.2,0,0.00,,,0.00,WUHU216PEETBRO,2013-08-17 22:50:00,
2013-08-17 17:55:00,82.4,0.0,0.00,ESE,105,6.6,12.7,0,0.00,,,0.00,WUHU216PEETBRO,2013-08-17 22:55:00,
2013-08-17 18:00:00,82.4,0.0,0.00,ENE,77,5.6,12.7,0,0.00,,,0.00,WUHU216PEETBRO,2013-08-17 23:00:00,
2013-08-17 18:05:00,83.5,0.0,0.00,NE,38,7.0,11.4,0,0.00,,,0.00,WUHU216PEETBRO,2013-08-17 23:05:00,
2013-08-17 18:10:00,83.5,0.0,0.00,NNE,16,4.6,10.3,0,0.00,,,0.00,WUHU216PEETBRO,2013-08-17 23:10:00,
2013-08-17 18:15:00,82.4,0.0,0.00,ENE,71,5.1,8.0,0,0.00,,,0.00,WUHU216PEETBRO,2013-08-17 23:15:00,
2013-08-17 18:20:00,83.5,0.0,0.00,East,90,4.5,7.8,0,0.00,,,0.00,WUHU216PEETBRO,2013-08-17 23:20:00,
2013-08-17 18:25:00,83.5,0.0,0.00,ESE,107,5.8,8.1,0,0.00,,,0.00,WUHU216PEETBRO,2013-08-17 23:25:00,
2013-08-17 18:30:00,83.5,0.0,0.00,SE,135,3.7,9.2,0,0.00,,,0.00,WUHU216PEETBRO,2013-08-17 23:30:00,
2013-08-17 18:35:00,82.4,0.0,0.00,East,79,2.2,9.2,0,0.00,,,0.00,WUHU216PEETBRO,2013-08-17 23:35:00,
2013-08-17 18:40:00,82.4,0.0,0.00,SSW,208,0.0,7.6,0,0.00,,,0.00,WUHU216PEETBRO,2013-08-17 23:40:00,
2013-08-17 18:45:00,81.4,0.0,0.00,East,84,7.1,8.1,0,0.00,,,0.00,WUHU216PEETBRO,2013-08-17 23:45:00,
2013-08-17 18:50:00,82.4,0.0,0.00,East,93,4.3,8.8,0,0.00,,,0.00,WUHU216PEETBRO,2013-08-17 23:50:00,
2013-08-17 18:55:00,81.5,0.0,0.00,East,101,2.0,8.8,0,0.00,,,0.00,WUHU216PEETBRO,2013-08-17 23:55:00,
2013-08-17 19:00:00,82.8,0.0,0.00,SE,124,4.0,6.7,0,0.00,,,0.00,WUHU216PEETBRO,2013-08-18 00:00:00,
2013-08-17 19:05:00,81.5,0.0,0.00,ESE,110,3.9,7.5,0,0.00,,,0.00,WUHU216PEETBRO,2013-08-18 00:05:00,
2013-08-17 19:10:00,80.6,0.0,0.00,East,94,4.0,8.0,0,0.00,,,0.00,WUHU216PEETBRO,2013-08-18 00:10:00,
2013-08-17 19:15:00,80.5,0.0,0.00,East,90,9.8,13.1,0,0.00,,,0.00,WUHU216PEETBRO,2013-08-18 00:15:00,
2013-08-17 19:20:00,80.4,0.0,0.00,SE,146,3.6,13.1,0,0.00,,,0.00,WUHU216PEETBRO,2013-08-18 00:20:00,
2013-08-17 19:25:00,79.4,0.0,0.00,SE,138,3.3,12.6,0,0.00,,,0.00,WUHU216PEETBRO,2013-08-18 00:25:00,
2013-08-17 19:30:00,79.9,0.0,0.00,SE,145,3.5,9.6,0,0.00,,,0.00,WUHU216PEETBRO,2013-08-18 00:30:00,
2013-08-17 19:35:00,78.9,0.0,0.00,ESE,107,3.8,9.5,0,0.00,,,0.00,WUHU216PEETBRO,2013-08-18 00:35:00,
2013-08-17 19:40:00,78.4,0.0,0.00,SSE,149,4.2,8.1,0,0.00,,,0.00,WUHU216PEETBRO,2013-08-18 00:40:00,
2013-08-17 19:45:00,78.4,0.0,0.00,ENE,57,3.4,6.7,0,0.00,,,0.00,WUHU216PEETBRO,2013-08-18 00:45:00,
2013-08-17 19:50:00,77.9,0.0,0.00,East,98,1.1,6.5,0,0.00,,,0.00,WUHU216PEETBRO,2013-08-18 00:50:00,
2013-08-17 19:55:00,77.9,0.0,0.00,ESE,119,2.7,4.8,0,0.00,,,0.00,WUHU216PEETBRO,2013-08-18 00:55:00,
2013-08-17 20:00:00,77.1,0.0,0.00,East,93,0.4,4.8,0,0.00,,,0.00,WUHU216PEETBRO,2013-08-18 01:00:00,
2013-08-17 20:05:00,77.9,0.0,0.00,East,95,2.7,4.2,0,0.00,,,0.00,WUHU216PEETBRO,2013-08-18 01:05:00,
2013-08-17 20:10:00,77.1,0.0,0.00,South,179,0.0,4.2,0,0.00,,,0.00,WUHU216PEETBRO,2013-08-18 01:10:00,
2013-08-17 20:15:00,77.1,0.0,0.00,South,179,0.0,3.7,0,0.00,,,0.00,WUHU216PEETBRO,2013-08-18 01:15:00,
2013-08-17 20:20:00,77.4,0.0,0.00,ESE,112,2.0,4.0,0,0.00,,,0.00,WUHU216PEETBRO,2013-08-18 01:20:00,
2013-08-17 20:25:00,76.8,0.0,0.00,East,86,1.6,4.2,0,0.00,,,0.00,WUHU216PEETBRO,2013-08-18 01:25:00,
2013-08-17 20:30:00,76.8,0.0,0.00,NNE,26,0.0,4.2,0,0.00,,,0.00,WUHU216PEETBRO,2013-08-18 01:30:00,
2013-08-17 20:35:00,76.8,0.0,0.00,ESE,114,3.0,3.6,0,0.00,,,0.00,WUHU216PEETBRO,2013-08-18 01:35:00,
2013-08-17 20:40:00,76.5,0.0,0.00,East,97,0.9,3.1,0,0.00,,,0.00,WUHU216PEETBRO,2013-08-18 01:40:00,
2013-08-17 20:45:00,76.8,0.0,0.00,East,81,1.9,4.4,0,0.00,,,0.00,WUHU216PEETBRO,2013-08-18 01:45:00,
2013-08-17 20:50:00,76.2,0.0,0.00,East,80,0.0,5.0,0,0.00,,,0.00,WUHU216PEETBRO,2013-08-18 01:50:00,
2013-08-17 20:55:00,75.9,0.0,0.00,East,101,0.0,5.0,0,0.00,,,0.00,WUHU216PEETBRO,2013-08-18 01:55:00,
2013-08-17 21:00:00,75.9,0.0,0.00,East,93,3.4,4.9,0,0.00,,,0.00,WUHU216PEETBRO,2013-08-18 02:00:00,
2013-08-17 21:05:00,76.2,0.0,0.00,SE,142,2.6,5.7,0,0.00,,,0.00,WUHU216PEETBRO,2013-08-18 02:05:00,
2013-08-17 21:10:00,75.9,0.0,0.00,East,87,2.9,5.8,0,0.00,,,0.00,WUHU216PEETBRO,2013-08-18 02:10:00,
2013-08-17 21:15:00,75.9,0.0,0.00,ENE,77,3.2,5.8,0,0.00,,,0.00,WUHU216PEETBRO,2013-08-18 02:15:00,
2013-08-17 21:20:00,75.9,0.0,0.00,East,90,3.9,8.9,0,0.00,,,0.00,WUHU216PEETBRO,2013-08-18 02:20:00,
2013-08-17 21:25:00,75.9,0.0,0.00,East,86,2.9,8.9,0,0.00,,,0.00,WUHU216PEETBRO,2013-08-18 02:25:00,
2013-08-17 21:30:00,75.9,0.0,0.00,East,97,4.3,5.4,0,0.00,,,0.00,WUHU216PEETBRO,2013-08-18 02:30:00,
2013-08-17 21:35:00,75.2,0.0,0.00,ESE,112,2.4,6.9,0,0.00,,,0.00,WUHU216PEETBRO,2013-08-18 02:35:00,
2013-08-17 21:40:00,74.9,0.0,0.00,ESE,112,3.4,6.9,0,0.00,,,0.00,WUHU216PEETBRO,2013-08-18 02:40:00,
2013-08-17 21:45:00,74.9,0.0,0.00,SE,128,3.7,5.4,0,0.00,,,0.00,WUHU216PEETBRO,2013-08-18 02:45:00,
2013-08-17 21:50:00,74.9,0.0,0.00,NE,46,3.3,5.7,0,0.00,,,0.00,WUHU216PEETBRO,2013-08-18 02:50:00,
2013-08-17 21:55:00,74.7,0.0,0.00,East,80,3.5,5.7,0,0.00,,,0.00,WUHU216PEETBRO,2013-08-18 02:55:00,
2013-08-17 22:00:00,74.9,0.0,0.00,NE,42,1.7,5.5,0,0.00,,,0.00,WUHU216PEETBRO,2013-08-18 03:00:00,
2013-08-17 22:05:00,75.2,0.0,0.00,ENE,60,3.4,5.5,0,0.00,,,0.00,WUHU216PEETBRO,2013-08-18 03:05:00,
2013-08-17 22:10:00,74.7,0.0,0.00,NNE,32,2.0,8.3,0,0.00,,,0.00,WUHU216PEETBRO,2013-08-18 03:10:00,
2013-08-17 22:15:00,74.6,0.0,0.00,East,86,3.2,8.3,0,0.00,,,0.00,WUHU216PEETBRO,2013-08-18 03:15:00,
2013-08-17 22:20:00,74.9,0.0,0.00,ESE,118,4.3,6.8,0,0.00,,,0.00,WUHU216PEETBRO,2013-08-18 03:20:00,
2013-08-17 22:25:00,74.6,0.0,0.00,ENE,66,1.6,7.1,0,0.00,,,0.00,WUHU216PEETBRO,2013-08-18 03:25:00,
2013-08-17 22:30:00,74.2,0.0,0.00,SSE,151,4.2,7.1,0,0.00,,,0.00,WUHU216PEETBRO,2013-08-18 03:30:00,
2013-08-17 22:34:00,74.4,0.0,0.00,East,86,4.0,5.7,0,0.00,,,0.00,WUHU216PEETBRO,2013-08-18 03:34:00,
2013-08-17 22:39:00,74.9,0.0,0.00,ESE,104,2.2,8.5,0,0.00,,,0.00,WUHU216PEETBRO,2013-08-18 03:39:00,
2013-08-17 22:44:00,74.2,0.0,0.00,ENE,63,3.4,8.5,0,0.00,,,0.00,WUHU216PEETBRO,2013-08-18 03:44:00,
2013-08-17 22:49:00,74.2,0.0,0.00,ENE,63,2.0,6.3,0,0.00,,,0.00,WUHU216PEETBRO,2013-08-18 03:49:00,
2013-08-17 22:54:00,74.2,0.0,0.00,NE,47,3.9,6.3,0,0.00,,,0.00,WUHU216PEETBRO,2013-08-18 03:54:00,
2013-08-17 22:59:00,74.1,0.0,0.00,SE,141,2.9,4.3,0,0.00,,,0.00,WUHU216PEETBRO,2013-08-18 03:59:00,
2013-08-17 23:01:00,73.9,0.0,0.00,ESE,114,0.9,4.7,0,0.00,,,0.00,WUHU216PEETBRO,2013-08-18 04:01:00,
2013-08-17 23:06:00,73.3,0.0,0.00,ENE,67,1.0,4.7,0,0.00,,,0.00,WUHU216PEETBRO,2013-08-18 04:06:00,
2013-08-17 23:11:00,73.9,0.0,0.00,ENE,64,1.9,5.0,0,0.00,,,0.00,WUHU216PEETBRO,2013-08-18 04:11:00,
2013-08-17 23:16:00,74.2,0.0,0.00,East,88,2.4,5.0,0,0.00,,,0.00,WUHU216PEETBRO,2013-08-18 04:16:00,
2013-08-17 23:21:00,73.3,0.0,0.00,East,98,3.2,5.0,0,0.00,,,0.00,WUHU216PEETBRO,2013-08-18 04:21:00,
2013-08-17 23:26:00,73.3,0.0,0.00,East,86,2.0,5.0,0,0.00,,,0.00,WUHU216PEETBRO,2013-08-18 04:26:00,
2013-08-17 23:31:00,72.6,0.0,0.00,NNE,23,0.7,4.8,0,0.00,,,0.00,WUHU216PEETBRO,2013-08-18 04:31:00,
2013-08-17 23:36:00,73.9,0.0,0.00,ENE,64,1.9,4.8,0,0.00,,,0.00,WUHU216PEETBRO,2013-08-18 04:36:00,
2013-08-17 23:41:00,73.3,0.0,0.00,ENE,64,0.0,3.5,0,0.00,,,0.00,WUHU216PEETBRO,2013-08-18 04:41:00,
2013-08-17 23:46:00,73.3,0.0,0.00,East,87,1.5,3.6,0,0.00,,,0.00,WUHU216PEETBRO,2013-08-18 04:46:00,
2013-08-17 23:51:00,73.3,0.0,0.00,NNE,16,2.4,4.3,0,0.00,,,0.00,WUHU216PEETBRO,2013-08-18 04:51:00,
2013-08-17 23:56:00,73.3,0.0,0.00,ENE,71,1.2,4.9,0,0.00,,,0.00,WUHU216PEETBRO,2013-08-18 04:56:00,